www.pogodaiklimat.ru

ПОГОДА в Ла-Верне, CA

  • Прогноз погоды в Ла-Верне
  • Монитор погоды в Ла-Верне
  • Климат в Ла-Верне

АРХИВ ПОГОДЫ в Ла-Верне

Время (UTC), дата Ветер
(напр.,м/с)
 
Видим.   Явления Облачность Т
(С)
Тd
(С)
f
(%)
Тe
(С)
Тes
(С)
Комфортность

P
(гПа)

Po
(гПа)
Тmin
(С)
Tmax
(С)
R
(мм)
SD
(см)
01:47 18.03   16 км    ясно  +21.0  +4.0  33  +21  +21  комфорт    978.3         
02:47 18.03   16 км    ясно  +19.0  +4.0  37  +19  +19      978.9         
12:47 18.03   16 км    ясно  +11.0  +5.0  66  +11  +11      978.9         
13:47 18.03 нст  16 км    ясно  +12.0  +7.0  71  +10  +10      979.2         
14:47 18.03 нст  16 км    ясно  +15.0  +7.0  59  +14  +15      979.6         
17:47 18.03 ЮЗ  16 км    ясно  +24.0  +5.0  29  +24  +36  комфорт    979.6         
18:47 18.03   16 км    ясно  +24.0  +4.0  27  +24  +43  комфорт    978.9         
19:47 18.03 ЮЗ  16 км    ясно  +25.0  +7.0  32  +25  +35  комфорт    978.3         
21:47 18.03   16 км    ясно  +26.0  +8.0  32  +26  +33  жарко    977.6         
22:47 18.03 ЮЗ  16 км    ясно  +25.0  +7.0  32  +25  +29  комфорт    977.3         
23:47 18.03 Ю  16 км    ясно  +22.0  +6.0  35  +23  +24  комфорт    977.3         
00:47 19.03 ЮЗ  16 км    ясно  +20.0  +6.0  40  +21  +21  комфорт    977.9         
01:47 19.03 З  16 км    ясно  +17.0  +7.0  52  +17  +17      978.3         
02:47 19.03 З  16 км    ясно  +15.0  +7.0  59  +15  +15      979.2         
12:47 19.03 В  16 км    ясно  +11.0  +7.0  76  +9  +9      977.9         
13:47 19.03 В  16 км    ясно  +12.0  +7.0  71  +11  +11      978.6         
14:47 19.03   16 км    ясно  +14.0  +8.0  67  +14  +15      978.9         
15:47 19.03   16 км    ясно  +18.0  +8.0  52  +18  +24      978.9         
16:47 19.03   16 км    ясно  +19.0  +8.0  49  +19  +30      978.6         
17:47 19.03 З  16 км    ясно  +20.0  +8.0  46  +21  +29  комфорт    978.6         
19:47 19.03 З  16 км    ясно  +20.0  +11.0  56  +21  +27  комфорт    977.6         
20:47 19.03 З  16 км    ясно  +20.0  +11.0  56  +21  +28  комфорт    977.6         
21:47 19.03 З  16 км    ясно  +19.0  +10.0  56  +20  +28      976.9         
00:47 20.03 З  16 км    ясно  +14.0  +11.0  82  +13  +13      978.9         
01:47 20.03   16 км    ясно  +13.0  +11.0  88  +12  +12      977.9         
02:47 20.03 ЮЗ  16 км    ясно  +13.0  +11.0  88  +11  +11      979.2         
12:47 20.03   16 км    10/10 750 м  +12.0  +9.0  82  +11  +11      979.2         
14:47 20.03   16 км    10/2 690 м
[средняя] 
+13.0  +9.0  77  +13  +13      980.9         
15:47 20.03   16 км    5/5 540 м  +13.0  +9.0  77  +13  +16      981.2         
16:47 20.03   16 км    8/0 2100 м
[средняя] 
+14.0  +9.0  72  +14  +19      981.2         
17:47 20.03   16 км    10/10 1170 м  +15.0  +7.0  59  +15  +15      981.2         
18:47 20.03 З  8
{13} 
3 км  дождь  10/10 840 м  +12.0  +9.0  82  +9  +9      980.9         
19:47 20.03 Ю  13 км    10/10 1290 м  +12.0  +9.0  82  +10  +10      980.2         
20:47 20.03 В  16 км    8/8 1290 м  +14.0  +11.0  82  +13  +16      979.9         
21:47 20.03 З  16 км    8/8 150 м  +14.0  +8.0  67  +12  +14      981.8         
22:47 20.03 З  16 км    8/8 150 м  +14.0  +9.0  72  +12  +12      980.2         
23:47 20.03 З  16 км    5/0 2100 м
[средняя] 
+13.0  +8.0  72  +12  +14      979.9         
00:47 21.03 нст  16 км    8/8 1500 м  +13.0  +6.0  62  +12  +12      980.2         
01:47 21.03 ЮЗ  16 км    5/5 1170 м  +11.0  +6.0  71  +9  +9      980.9         
02:47 21.03 ЮЗ  16 км    2/2 900 м  +10.0  +6.0  76  +8  +8      981.2         
16:47 21.03   16 км    10/10 600 м  +12.0  +7.0  71  +12  +12      983.8         
17:47 21.03 Ю  16 км    8/8 1050 м  +12.0  +7.0  71  +10  +12      983.8         
18:47 21.03 Ю  16 км    10/10 780 м  +11.0  +6.0  71  +9  +9      983.5         
19:47 21.03 Ю  16 км    8/8 660 м  +12.0  +8.0  76  +11  +13      982.8         
20:47 21.03 ЮЗ  16 км    8/8 1380 м  +13.0  +7.0  67  +11  +13      982.5         
21:47 21.03 З  16 км    8/8 900 м  +13.0  +7.0  67  +11  +12      982.2         
22:47 21.03 Ю  16 км    5/0 2250 м
[средняя] 
+14.0  +8.0  67  +12  +15      982.2         
23:47 21.03 Ю  16 км    5/5 900 м  +13.0  +7.0  67  +11  +12      982.2         

 

Местоположение метеостанции Brackett Field Airport: широта 34.1000 долгота -117.7800 высота над уровнем моря 308 м.

В архиве по умолчанию представлена погода в Ла-Верне за последние 1-2 суток. Обновление информации о фактической погоде в базе происходит ежечасно! Архивные данные за месяц целиком и за предыдущие месяцы Вы можете получить, выбрав интересующий диапазон дат из раскрывающегося списка и нажав кнопку "Ввод!".

Внимание! Архив погоды МЕТАР в базе сайта хранится не более 60 дней. Нет смысла пытаться выбрать более раннюю дату.

Внимание! Время в таблицах - всемирное. Для получения местного времени необходимо прибавить поправку, которая в Ла-Верне равна -8 ч.

Ветер - указаны скорость ветра в м/с и направление, откуда дует ветер: С - северный, СВ - северо-восточный, В - восточный, ЮВ - юго-восточный, Ю - южный, ЮЗ - юго-западный, З - западный, СЗ - северо-западный.
Видимость - горизонтальная дальность видимости в метрах или километрах. При видимости от 1 до 10 км при отсутствии осадков обычно наблюдается дымка, при ухудшении видимости до 1 км и менее - туман. В сухую погоду видимость может ухудшаться дымом, пылью или мглою.
Атмосферные явления - указаны явления, наблюдавшиеся в указанный момент времени.
Облачность - указаны через наклонную черту верхняя и нижняя облачность в баллах и высота нижней границы облаков в метрах. Внимание: облачность, как и прочие метеорологические величины в США измеряются автоматическими метеостанциями. Указанные значения в баллах носят условный характер и показывают процент времени, в течение которого, в среднем, лазерный луч высотомера отражался от облаков обратно.
T - Температура воздуха - температура, измеренная на высоте 2 м над землей.
Td - Температура точки росы - температура, при понижении до которой содержащийся в воздухе водяной пар достигнет насыщения.
f - Относительная влажность воздуха - влажноcть воздуха, измеренная на высоте 2 м над землей.
Te - Эффективная температура - температура, которую ощущает одетый по сезону человек в тени. Характеристика душности погоды. При расчете учитывается влияние влажности воздуха и скорости ветра на теплоощущения человека.
Tes - Эффективная температура на солнце - температура, которую ощущает человек, с поправкой на солнечный нагрев. Характеристика знойности погоды. Зависит от высоты солнца над горизонтом, облачности и скорости ветра. Ночью, в пасмурную погоду, а также при ветре 12 м/с и более поправка равна нулю.
P - Атмосферное давление - приведенное к уровню моря атмосферное давление.
Po - Атмосферное давление - измеренное на уровне метеостанции атмосферное давление.
Tmin - Минимальная температура - минимум температуры воздуха на высоте 2 м над землей.
Tmax - Максимальная температура - максимум температуры воздуха на высоте 2 м над землей.
R - Количество осадков - Количество выпавших осадков за 3 или 6 часов, мм.
SD - Снежный покров - Высота снежного покрова, см.